TimePST,TemperatureF,Dew PointF,Humidity,Sea Level PressureIn,VisibilityMPH,Wind Direction,Wind SpeedMPH,Gust SpeedMPH,PrecipitationIn,Events,Conditions,WindDirDegrees,DateUTC
12:04 AM,12.2,12.2,100,30.29,0.8,North,1.2,-,N/A,,Scattered Clouds,10,2013-01-19 08:04:00
12:17 AM,12.2,12.2,100,30.29,0.5,Calm,Calm,-,N/A,Fog,Light Freezing Fog,0,2013-01-19 08:17:00
12:27 AM,12.2,12.2,100,30.29,0.2,Calm,Calm,-,N/A,Fog,Light Freezing Fog,0,2013-01-19 08:27:00
12:37 AM,14.0,14.0,100,30.29,0.5,Calm,Calm,-,N/A,Fog,Light Freezing Fog,0,2013-01-19 08:37:00
12:42 AM,14.0,14.0,100,30.29,0.2,Calm,Calm,-,N/A,Fog,Light Freezing Fog,0,2013-01-19 08:42:00
12:45 AM,12.2,12.2,100,30.28,0.2,Calm,Calm,-,N/A,Fog-Snow,Light Freezing Fog,0,2013-01-19 08:45:00
12:58 AM,12.6,12.6,100,30.42,0.2,Calm,Calm,-,0.00,Fog-Snow,Light Freezing Fog,0,2013-01-19 08:58:00
1:03 AM,12.2,12.2,100,30.29,0.5,Calm,Calm,-,N/A,Fog-Snow,Light Freezing Fog,0,2013-01-19 09:03:00
1:12 AM,14.0,14.0,100,30.29,0.5,NNE,2.3,-,N/A,Fog,Light Freezing Fog,20,2013-01-19 09:12:00
1:34 AM,14.0,14.0,100,30.29,0.8,NE,3.5,-,N/A,,Mostly Cloudy,40,2013-01-19 09:34:00
1:40 AM,14.0,14.0,100,30.30,0.5,NNE,3.5,-,N/A,Fog,Light Freezing Fog,30,2013-01-19 09:40:00
1:45 AM,14.0,14.0,100,30.30,0.8,NNE,2.3,-,N/A,,Scattered Clouds,30,2013-01-19 09:45:00
1:50 AM,14.0,14.0,100,30.30,1.8,NNE,3.5,-,N/A,,Scattered Clouds,30,2013-01-19 09:50:00
1:52 AM,12.2,12.2,100,30.29,3.0,NE,3.5,-,N/A,Snow,Light Snow,40,2013-01-19 09:52:00
1:58 AM,12.9,12.9,100,30.41,4.0,NE,2.3,-,0.00,Snow,Light Snow,50,2013-01-19 09:58:00
2:05 AM,12.2,12.2,100,30.30,0.8,NNE,2.3,-,N/A,,Partly Cloudy,30,2013-01-19 10:05:00
2:10 AM,14.0,14.0,100,30.30,0.5,ENE,1.2,-,N/A,Fog,Light Freezing Fog,60,2013-01-19 10:10:00
2:21 AM,14.0,14.0,100,30.30,0.2,NNE,1.2,-,N/A,Fog,Light Freezing Fog,30,2013-01-19 10:21:00
2:26 AM,14.0,14.0,100,30.30,0.2,NNE,1.2,-,N/A,Fog,Light Freezing Fog,30,2013-01-19 10:26:00
2:31 AM,14.0,14.0,100,30.30,0.5,NE,2.3,-,N/A,Fog,Light Freezing Fog,50,2013-01-19 10:31:00
2:41 AM,14.0,14.0,100,30.30,0.2,Calm,Calm,-,N/A,Fog,Light Freezing Fog,0,2013-01-19 10:41:00
2:46 AM,14.0,14.0,100,30.30,0.2,North,-9999.0,-,N/A,Fog,Light Freezing Fog,0,2013-01-19 10:46:00
2:58 AM,12.4,12.4,100,30.43,0.2,Calm,Calm,-,0.00,Fog,Light Freezing Fog,0,2013-01-19 10:58:00
2:59 AM,12.2,12.2,100,30.30,0.2,Calm,Calm,-,N/A,Fog-Snow,Light Freezing Fog,0,2013-01-19 10:59:00
3:15 AM,12.2,12.2,100,30.30,0.2,Calm,Calm,-,N/A,Fog,Light Freezing Fog,0,2013-01-19 11:15:00
3:31 AM,12.2,12.2,100,30.30,0.2,ENE,2.3,-,N/A,Fog,Light Freezing Fog,70,2013-01-19 11:31:00
3:36 AM,12.2,12.2,100,30.30,0.2,East,2.3,-,N/A,Fog,Light Freezing Fog,80,2013-01-19 11:36:00
3:43 AM,10.4,10.4,100,30.30,0.5,Calm,Calm,-,N/A,Fog,Light Freezing Fog,0,2013-01-19 11:43:00
3:55 AM,10.4,10.4,100,30.30,0.5,NNE,1.2,-,N/A,Fog,Light Freezing Fog,20,2013-01-19 11:55:00
3:56 AM,12.2,12.2,100,30.30,0.5,NNE,2.3,-,N/A,Fog-Snow,Light Freezing Fog,30,2013-01-19 11:56:00
3:59 AM,12.2,12.2,100,30.43,0.5,NE,2.3,-,0.00,Fog-Snow,Light Freezing Fog,50,2013-01-19 11:59:00
4:15 AM,12.2,12.2,100,30.30,0.2,Calm,Calm,-,N/A,Fog,Light Freezing Fog,0,2013-01-19 12:15:00
4:21 AM,12.2,12.2,100,30.30,0.2,Calm,Calm,-,N/A,Fog,Light Freezing Fog,0,2013-01-19 12:21:00
4:31 AM,12.2,12.2,100,30.31,0.2,Calm,Calm,-,N/A,Fog,Light Freezing Fog,0,2013-01-19 12:31:00
4:43 AM,12.2,12.2,100,30.31,0.2,Calm,Calm,-,N/A,Fog,Light Freezing Fog,0,2013-01-19 12:43:00
4:48 AM,14.0,14.0,100,30.31,0.5,Calm,Calm,-,N/A,Fog,Light Freezing Fog,0,2013-01-19 12:48:00
4:58 AM,13.3,13.3,100,30.45,0.8,NNE,1.2,-,0.00,,Clear,30,2013-01-19 12:58:00
5:05 AM,14.0,14.0,100,30.31,1.0,ENE,2.3,-,N/A,Snow,Light Snow,60,2013-01-19 13:05:00
5:11 AM,14.0,14.0,100,30.31,1.0,ENE,2.3,-,N/A,Snow,Light Snow,60,2013-01-19 13:11:00
5:30 AM,14.0,14.0,100,30.32,2.5,NE,2.3,-,N/A,Snow,Light Snow,50,2013-01-19 13:30:00
5:32 AM,14.0,14.0,100,30.32,3.0,NE,2.3,-,N/A,,Clear,50,2013-01-19 13:32:00
5:58 AM,14.9,14.9,100,30.46,9.0,NNE,2.3,-,0.00,,Clear,20,2013-01-19 13:58:00
6:01 AM,14.0,14.0,100,30.32,9.0,NNE,2.3,-,N/A,Snow,Light Snow,20,2013-01-19 14:01:00
6:29 AM,15.8,15.8,100,30.32,10.0,NE,1.2,-,N/A,,Clear,40,2013-01-19 14:29:00
6:58 AM,16.2,16.2,100,30.46,10.0,NE,2.3,-,0.00,,Clear,50,2013-01-19 14:58:00
7:08 AM,15.8,15.8,100,30.33,9.0,ENE,1.2,-,N/A,Snow,Light Snow,70,2013-01-19 15:08:00
7:22 AM,15.8,15.8,100,30.33,7.0,Calm,Calm,-,N/A,,Clear,0,2013-01-19 15:22:00
7:58 AM,15.8,15.8,100,30.47,5.0,NE,1.2,-,0.00,,Clear,50,2013-01-19 15:58:00
8:18 AM,15.8,15.8,100,30.34,6.0,Calm,Calm,-,N/A,Snow,Light Snow,0,2013-01-19 16:18:00
8:30 AM,15.8,15.8,100,30.35,6.0,Calm,Calm,-,N/A,,Clear,0,2013-01-19 16:30:00
8:37 AM,15.8,15.8,100,30.35,6.0,NE,1.2,-,N/A,Snow,Light Snow,40,2013-01-19 16:37:00
8:45 AM,15.8,15.8,100,30.35,6.0,NE,1.2,-,N/A,,Clear,40,2013-01-19 16:45:00
8:58 AM,16.2,16.2,100,30.49,7.0,NE,2.3,-,0.00,,Clear,40,2013-01-19 16:58:00
9:56 AM,19.4,19.4,100,30.37,8.0,ENE,3.5,-,N/A,,Clear,60,2013-01-19 17:56:00
9:59 AM,19.8,19.8,100,30.50,8.0,ENE,3.5,-,0.00,,Clear,60,2013-01-19 17:59:00
10:59 AM,21.9,21.9,100,30.49,10.0,ENE,3.5,-,0.00,,Partly Cloudy,70,2013-01-19 18:59:00
11:01 AM,21.2,21.2,100,30.36,10.0,ENE,3.5,-,N/A,,Partly Cloudy,70,2013-01-19 19:01:00
11:58 AM,23.0,23.0,100,30.49,10.0,NNE,4.6,-,N/A,,Clear,20,2013-01-19 19:58:00
12:47 PM,23.0,23.0,100,30.34,10.0,NE,2.3,-,N/A,,Clear,50,2013-01-19 20:47:00
2:55 PM,24.8,24.8,100,30.33,10.0,NE,1.2,-,N/A,,Clear,40,2013-01-19 22:55:00
3:35 PM,24.8,24.8,100,30.33,10.0,Calm,Calm,-,N/A,,Clear,0,2013-01-19 23:35:00
3:49 PM,24.8,24.8,100,30.33,10.0,Calm,Calm,-,N/A,,Clear,0,2013-01-19 23:49:00
3:55 PM,24.8,24.8,100,30.44,10.0,Calm,Calm,-,N/A,,Clear,0,2013-01-19 23:55:00
4:55 PM,24.8,24.8,100,30.34,10.0,North,2.3,-,N/A,,Clear,360,2013-01-20 00:55:00
4:58 PM,24.8,24.8,100,30.34,10.0,North,3.5,-,N/A,,Clear,350,2013-01-20 00:58:00
5:55 PM,23.0,22.8,99,30.45,10.0,Calm,Calm,-,N/A,,Clear,0,2013-01-20 01:55:00
6:55 PM,23.4,23.4,100,30.46,10.0,Calm,Calm,-,N/A,,Clear,0,2013-01-20 02:55:00
7:58 PM,23.5,23.5,100,30.47,10.0,NNE,4.6,-,N/A,,Clear,20,2013-01-20 03:58:00
8:55 PM,23.9,23.9,100,30.48,10.0,Calm,Calm,-,N/A,,Clear,0,2013-01-20 04:55:00
9:55 PM,23.0,23.0,100,30.38,10.0,North,1.2,-,N/A,,Clear,10,2013-01-20 05:55:00
10:55 PM,21.2,21.2,100,30.37,10.0,East,3.5,-,N/A,,Partly Cloudy,90,2013-01-20 06:55:00
11:58 PM,22.3,22.3,100,30.49,10.0,North,4.6,-,N/A,,Clear,360,2013-01-20 07:58:00